Time,TemperatureF,DewpointF,PressureIn,WindDirection,WindDirectionDegrees,WindSpeedMPH,WindSpeedGustMPH,Humidity,HourlyPrecipIn,Conditions,Clouds,dailyrainin,SoftwareType,DateUTC
2013-03-10 00:09:00,54.2,53.0,29.65,South,170,4.0,9.0,94,0.00,,,0.00,weatherlink.com 1.10,2013-03-10 06:09:00,
2013-03-10 00:24:00,54.2,52.0,29.66,SSE,153,3.0,10.0,93,0.00,,,0.00,weatherlink.com 1.10,2013-03-10 06:24:00,
2013-03-10 00:39:00,54.1,52.0,29.66,SSE,168,0.0,10.0,93,0.00,,,0.00,weatherlink.com 1.10,2013-03-10 06:39:00,
2013-03-10 00:54:00,53.8,52.0,29.68,South,183,5.0,9.0,93,0.00,,,0.00,weatherlink.com 1.10,2013-03-10 06:54:00,
2013-03-10 01:09:00,53.5,51.0,29.68,South,182,0.0,6.0,92,0.00,,,0.00,weatherlink.com 1.10,2013-03-10 07:09:00,
2013-03-10 01:25:00,53.0,51.0,29.68,SSW,205,0.0,7.0,92,0.00,,,0.00,weatherlink.com 1.10,2013-03-10 07:25:00,
2013-03-10 01:40:00,53.1,51.0,29.68,SW,233,5.0,9.0,92,0.00,,,0.00,weatherlink.com 1.10,2013-03-10 07:40:00,
2013-03-10 01:55:00,53.0,51.0,29.67,South,176,4.0,6.0,92,0.00,,,0.00,weatherlink.com 1.10,2013-03-10 07:55:00,
2013-03-10 02:10:00,53.2,51.0,29.67,SW,225,2.0,5.0,92,0.00,,,0.00,weatherlink.com 1.10,2013-03-10 08:10:00,
2013-03-10 02:25:00,53.3,51.0,29.69,SSW,207,2.0,10.0,92,0.00,,,0.00,weatherlink.com 1.10,2013-03-10 08:25:00,
2013-03-10 02:40:00,53.9,52.0,29.69,SW,226,7.0,11.0,92,0.00,,,0.00,weatherlink.com 1.10,2013-03-10 08:40:00,
2013-03-10 02:55:00,54.0,51.0,29.68,WSW,250,2.0,9.0,90,0.01,,,0.01,weatherlink.com 1.10,2013-03-10 08:55:00,
2013-03-10 03:10:00,53.9,51.0,29.67,SW,214,4.0,5.0,89,0.01,,,0.01,weatherlink.com 1.10,2013-03-10 09:10:00,
2013-03-10 03:25:00,53.6,50.0,29.66,South,171,2.0,4.0,86,0.01,,,0.01,weatherlink.com 1.10,2013-03-10 09:25:00,
2013-03-10 03:40:00,53.5,49.0,29.65,SE,145,3.0,6.0,83,0.01,,,0.01,weatherlink.com 1.10,2013-03-10 09:40:00,
2013-03-10 03:55:00,53.7,50.0,29.63,SSE,150,2.0,6.0,86,0.00,,,0.01,weatherlink.com 1.10,2013-03-10 09:55:00,
2013-03-10 04:10:00,53.8,49.0,29.62,SE,146,5.0,14.0,84,0.00,,,0.01,weatherlink.com 1.10,2013-03-10 10:10:00,
2013-03-10 04:25:00,53.7,50.0,29.65,SSE,149,7.0,13.0,86,0.00,,,0.01,weatherlink.com 1.10,2013-03-10 10:25:00,
2013-03-10 04:40:00,53.5,50.0,29.65,SSE,165,3.0,13.0,89,0.00,,,0.01,weatherlink.com 1.10,2013-03-10 10:40:00,
2013-03-10 04:55:00,53.1,50.0,29.68,SSW,213,9.0,20.0,90,0.01,,,0.02,weatherlink.com 1.10,2013-03-10 10:55:00,
2013-03-10 05:10:00,52.9,48.0,29.61,SE,145,4.0,16.0,84,0.03,,,0.04,weatherlink.com 1.10,2013-03-10 11:10:00,
2013-03-10 05:25:00,53.2,48.0,29.67,South,182,3.0,10.0,83,0.03,,,0.04,weatherlink.com 1.10,2013-03-10 11:25:00,
2013-03-10 05:40:00,52.7,48.0,29.61,SE,146,6.0,11.0,85,0.03,,,0.04,weatherlink.com 1.10,2013-03-10 11:40:00,
2013-03-10 05:55:00,52.4,48.0,29.65,SSW,197,3.0,13.0,85,0.02,,,0.04,weatherlink.com 1.10,2013-03-10 11:55:00,
2013-03-10 06:10:00,51.5,47.0,29.64,NW,313,9.0,18.0,83,0.00,,,0.04,weatherlink.com 1.10,2013-03-10 12:10:00,
2013-03-10 06:25:00,47.2,42.0,29.68,WNW,284,7.0,14.0,82,0.00,,,0.04,weatherlink.com 1.10,2013-03-10 12:25:00,
2013-03-10 06:40:00,45.4,41.0,29.68,WNW,296,0.0,13.0,83,0.00,,,0.04,weatherlink.com 1.10,2013-03-10 12:40:00,
2013-03-10 06:55:00,44.8,41.0,29.68,NW,312,0.0,6.0,85,0.00,,,0.04,weatherlink.com 1.10,2013-03-10 12:55:00,
2013-03-10 07:10:00,44.4,41.0,29.67,NW,306,3.0,11.0,86,0.00,,,0.04,weatherlink.com 1.10,2013-03-10 13:10:00,
2013-03-10 07:25:00,43.7,40.0,29.69,WNW,294,5.0,14.0,86,0.00,,,0.04,weatherlink.com 1.10,2013-03-10 13:25:00,
2013-03-10 07:41:00,43.1,39.0,29.69,NW,304,3.0,12.0,86,0.00,,,0.04,weatherlink.com 1.10,2013-03-10 13:41:00,
2013-03-10 07:56:00,43.0,39.0,29.71,West,263,0.0,7.0,86,0.00,,,0.04,weatherlink.com 1.10,2013-03-10 13:56:00,
2013-03-10 08:11:00,43.0,39.0,29.73,West,259,1.0,6.0,86,0.00,,,0.04,weatherlink.com 1.10,2013-03-10 14:11:00,
2013-03-10 08:26:00,43.6,40.0,29.72,NW,304,0.0,7.0,87,0.00,,,0.04,weatherlink.com 1.10,2013-03-10 14:26:00,
2013-03-10 08:41:00,43.2,39.0,29.71,WNW,303,7.0,12.0,86,0.00,,,0.04,weatherlink.com 1.10,2013-03-10 14:41:00,
2013-03-10 08:56:00,43.3,39.0,29.73,West,264,0.0,7.0,85,0.00,,,0.04,weatherlink.com 1.10,2013-03-10 14:56:00,
2013-03-10 09:11:00,43.8,40.0,29.73,West,270,0.0,8.0,85,0.00,,,0.04,weatherlink.com 1.10,2013-03-10 15:11:00,
2013-03-10 09:26:00,44.2,40.0,29.72,West,267,0.0,9.0,84,0.00,,,0.04,weatherlink.com 1.10,2013-03-10 15:26:00,
2013-03-10 09:42:00,43.8,39.0,29.73,WNW,284,1.0,10.0,84,0.00,,,0.04,weatherlink.com 1.10,2013-03-10 15:42:00,
2013-03-10 09:56:00,43.3,39.0,29.73,WNW,294,1.0,10.0,84,0.00,,,0.04,weatherlink.com 1.10,2013-03-10 15:56:00,
2013-03-10 10:11:00,42.4,38.0,29.74,West,278,6.0,10.0,84,0.00,,,0.04,weatherlink.com 1.10,2013-03-10 16:11:00,
2013-03-10 10:26:00,41.6,37.0,29.75,West,269,8.0,18.0,84,0.00,,,0.04,weatherlink.com 1.10,2013-03-10 16:26:00,
2013-03-10 10:41:00,41.1,37.0,29.76,NW,306,10.0,14.0,86,0.00,,,0.04,weatherlink.com 1.10,2013-03-10 16:41:00,
2013-03-10 10:56:00,40.9,37.0,29.76,West,275,6.0,14.0,86,0.00,,,0.04,weatherlink.com 1.10,2013-03-10 16:56:00,
2013-03-10 11:11:00,40.6,37.0,29.77,WNW,282,8.0,13.0,87,0.00,,,0.04,weatherlink.com 1.10,2013-03-10 17:11:00,
2013-03-10 11:26:00,40.5,37.0,29.77,WNW,302,6.0,12.0,87,0.00,,,0.04,weatherlink.com 1.10,2013-03-10 17:26:00,
2013-03-10 11:41:00,40.5,37.0,29.78,NW,305,7.0,8.0,88,0.00,,,0.04,weatherlink.com 1.10,2013-03-10 17:41:00,
2013-03-10 11:56:00,40.0,37.0,29.78,NW,306,0.0,13.0,88,0.00,,,0.04,weatherlink.com 1.10,2013-03-10 17:56:00,
2013-03-10 12:11:00,39.8,37.0,29.79,West,272,7.0,14.0,88,0.00,,,0.04,weatherlink.com 1.10,2013-03-10 18:11:00,
2013-03-10 12:26:00,39.8,36.0,29.80,NW,306,7.0,11.0,86,0.00,,,0.04,weatherlink.com 1.10,2013-03-10 18:26:00,
2013-03-10 12:41:00,39.9,36.0,29.81,NW,304,7.0,18.0,84,0.00,,,0.04,weatherlink.com 1.10,2013-03-10 18:41:00,
2013-03-10 12:56:00,39.7,35.0,29.82,WNW,302,7.0,12.0,84,0.00,,,0.04,weatherlink.com 1.10,2013-03-10 18:56:00,
2013-03-10 13:11:00,39.2,35.0,29.83,WNW,295,1.0,17.0,85,0.00,,,0.04,weatherlink.com 1.10,2013-03-10 19:11:00,
2013-03-10 13:26:00,38.6,35.0,29.83,WNW,301,4.0,12.0,88,0.00,,,0.04,weatherlink.com 1.10,2013-03-10 19:26:00,
2013-03-10 13:41:00,38.2,35.0,29.83,NW,314,8.0,14.0,88,0.00,,,0.04,weatherlink.com 1.10,2013-03-10 19:41:00,
2013-03-10 13:56:00,38.4,35.0,29.84,WNW,290,1.0,12.0,86,0.00,,,0.04,weatherlink.com 1.10,2013-03-10 19:56:00,
2013-03-10 14:11:00,38.4,34.0,29.85,WNW,284,11.0,15.0,85,0.00,,,0.04,weatherlink.com 1.10,2013-03-10 20:11:00,
2013-03-10 14:42:00,39.7,36.0,29.87,North,-999,0.0,0.0,86,0.00,,,0.04,weatherlink.com 1.10,2013-03-10 20:42:00,
2013-03-10 14:57:00,38.4,35.0,29.88,North,-999,0.0,0.0,87,0.00,,,0.04,weatherlink.com 1.10,2013-03-10 20:57:00,
2013-03-10 15:12:00,38.5,35.0,29.89,North,-999,0.0,0.0,86,0.00,,,0.04,weatherlink.com 1.10,2013-03-10 21:12:00,
2013-03-10 15:27:00,38.2,33.0,29.89,WNW,295,8.0,8.0,82,0.00,,,0.04,weatherlink.com 1.10,2013-03-10 21:27:00,
2013-03-10 15:42:00,36.5,31.0,29.90,NW,326,12.0,21.0,81,0.00,,,0.04,weatherlink.com 1.10,2013-03-10 21:42:00,
2013-03-10 15:57:00,35.7,30.0,29.90,WNW,296,13.0,18.0,81,0.00,,,0.04,weatherlink.com 1.10,2013-03-10 21:57:00,
2013-03-10 16:12:00,35.7,30.0,29.91,WNW,297,11.0,17.0,79,0.00,,,0.04,weatherlink.com 1.10,2013-03-10 22:12:00,
2013-03-10 16:27:00,35.6,29.0,29.91,WNW,297,9.0,15.0,78,0.00,,,0.04,weatherlink.com 1.10,2013-03-10 22:27:00,
2013-03-10 16:42:00,35.7,29.0,29.92,NW,323,10.0,16.0,78,0.00,,,0.04,weatherlink.com 1.10,2013-03-10 22:42:00,
2013-03-10 16:57:00,35.5,29.0,29.92,WNW,300,8.0,17.0,78,0.00,,,0.04,weatherlink.com 1.10,2013-03-10 22:57:00,
2013-03-10 17:12:00,35.0,28.0,29.93,NW,307,11.0,18.0,77,0.00,,,0.04,weatherlink.com 1.10,2013-03-10 23:12:00,
2013-03-10 17:27:00,34.8,28.0,29.93,NW,304,6.0,16.0,76,0.00,,,0.04,weatherlink.com 1.10,2013-03-10 23:27:00,
2013-03-10 17:42:00,34.6,27.0,29.94,NNW,331,9.0,17.0,75,0.00,,,0.04,weatherlink.com 1.10,2013-03-10 23:42:00,
2013-03-10 17:57:00,34.3,27.0,29.95,NW,311,7.0,13.0,75,0.00,,,0.04,weatherlink.com 1.10,2013-03-10 23:57:00,
2013-03-10 18:12:00,34.0,27.0,29.96,WNW,300,10.0,14.0,75,0.00,,,0.04,weatherlink.com 1.10,2013-03-11 00:12:00,
2013-03-10 18:27:00,33.8,26.0,29.96,NW,325,11.0,18.0,74,0.00,,,0.04,weatherlink.com 1.10,2013-03-11 00:27:00,
2013-03-10 18:42:00,33.5,26.0,29.96,NNW,333,12.0,15.0,74,0.00,,,0.04,weatherlink.com 1.10,2013-03-11 00:42:00,
2013-03-10 18:57:00,33.2,26.0,29.97,NW,311,9.0,15.0,75,0.00,,,0.04,weatherlink.com 1.10,2013-03-11 00:57:00,
2013-03-10 19:12:00,33.2,26.0,29.98,WNW,300,9.0,14.0,75,0.00,,,0.04,weatherlink.com 1.10,2013-03-11 01:12:00,
2013-03-10 19:27:00,32.7,25.0,29.98,NW,311,6.0,18.0,74,0.00,,,0.04,weatherlink.com 1.10,2013-03-11 01:27:00,
2013-03-10 19:42:00,32.3,25.0,29.99,NW,305,4.0,17.0,75,0.00,,,0.04,weatherlink.com 1.10,2013-03-11 01:42:00,
2013-03-10 19:57:00,32.2,25.0,29.99,NW,324,7.0,13.0,75,0.00,,,0.04,weatherlink.com 1.10,2013-03-11 01:57:00,
2013-03-10 20:12:00,32.1,25.0,30.00,NNW,339,8.0,11.0,76,0.00,,,0.04,weatherlink.com 1.10,2013-03-11 02:12:00,
2013-03-10 20:27:00,31.9,25.0,30.00,NW,310,12.0,15.0,75,0.00,,,0.04,weatherlink.com 1.10,2013-03-11 02:27:00,
2013-03-10 20:42:00,31.7,25.0,30.00,NW,314,4.0,12.0,75,0.00,,,0.04,weatherlink.com 1.10,2013-03-11 02:42:00,
2013-03-10 20:57:00,31.7,25.0,30.01,NW,308,9.0,14.0,75,0.00,,,0.04,weatherlink.com 1.10,2013-03-11 02:57:00,
2013-03-10 21:13:00,31.6,25.0,30.02,NW,305,1.0,15.0,75,0.00,,,0.04,weatherlink.com 1.10,2013-03-11 03:13:00,
2013-03-10 21:28:00,31.4,24.0,30.03,WNW,301,9.0,14.0,75,0.00,,,0.04,weatherlink.com 1.10,2013-03-11 03:28:00,
2013-03-10 21:43:00,31.4,24.0,30.03,NW,320,10.0,10.0,75,0.00,,,0.04,weatherlink.com 1.10,2013-03-11 03:43:00,
2013-03-10 21:58:00,31.5,24.0,30.03,NW,310,2.0,12.0,75,0.00,,,0.04,weatherlink.com 1.10,2013-03-11 03:58:00,
2013-03-10 22:13:00,31.5,24.0,30.04,NW,304,2.0,14.0,75,0.00,,,0.04,weatherlink.com 1.10,2013-03-11 04:13:00,
2013-03-10 22:28:00,31.5,24.0,30.04,WNW,295,0.0,11.0,75,0.00,,,0.04,weatherlink.com 1.10,2013-03-11 04:28:00,
2013-03-10 22:43:00,31.5,24.0,30.04,WNW,300,0.0,16.0,74,0.00,,,0.04,weatherlink.com 1.10,2013-03-11 04:43:00,
2013-03-10 22:58:00,31.4,24.0,30.04,WNW,296,6.0,15.0,74,0.00,,,0.04,weatherlink.com 1.10,2013-03-11 04:58:00,
2013-03-10 23:13:00,31.3,24.0,30.04,NW,306,0.0,10.0,74,0.00,,,0.00,weatherlink.com 1.10,2013-03-11 05:13:00,
2013-03-10 23:28:00,31.1,24.0,30.04,NW,309,12.0,14.0,74,0.00,,,0.00,weatherlink.com 1.10,2013-03-11 05:28:00,
2013-03-10 23:43:00,31.2,24.0,30.03,NW,308,5.0,13.0,74,0.00,,,0.00,weatherlink.com 1.10,2013-03-11 05:43:00,
2013-03-10 23:58:00,31.2,24.0,30.03,NW,315,5.0,14.0,75,0.00,,,0.00,weatherlink.com 1.10,2013-03-11 05:58:00,